Wind_Speed
16 17 17 16 16 16 16 16 16 16 16 18 19 19 17 18 18 19 18 18 17 17 17 18 17 18 19 19 18 18 18 18 18 17 18 18 18 18 18 18 17 18 17 17
16 18 17 17 18 18 17 17 16 17 17 18 19 18 17 17 17 20 18 17 17 16 17 18 19 19 19 19 19 18 18 17 17 17 18 18 17 17 17 18 18 18 18 18
19 18 18 18 18 19 19 18 18 18 19 18 18 19 18 19 18 19 19 17 17 17 18 19 20 20 20 19 18 18 17 17 17 18 18 17 17 17 17 17 17 16 17 17
19 18 19 19 19 20 20 18 19 19 21 19 18 19 17 18 18 18 17 17 17 18 18 19 19 19 19 18 17 17 17 17 17 17 17 17 16 17 17 17 16 16 17 17
17 18 18 19 18 19 19 18 19 19 20 20 18 18 18 19 18 19 19 18 18 18 19 19 18 19 19 18 17 17 16 16 16 16 16 16 16 17 17 18 17 17 17 17
16 17 19 19 18 19 19 19 19 19 19 20 17 18 19 18 19 19 18 18 19 18 18 17 17 18 17 17 16 16 15 16 15 15 16 16 16 16 17 18 17 18 18 18
16 17 17 18 19 18 19 19 18 19 19 19 16 18 19 19 19 20 20 20 18 17 17 17 18 18 16 15 15 15 15 15 15 15 15 15 16 17 17 17 18 19 19 19
17 18 18 19 19 19 20 20 19 19 17 17 16 19 21 20 19 19 19 18 17 16 16 17 17 17 16 15 15 15 15 15 15 15 15 16 17 17 17 18 19 19 20 19
18 17 17 18 18 20 21 21 20 20 19 18 18 19 20 19 19 19 17 17 17 17 17 18 17 16 15 15 14 15 15 15 14 14 15 16 17 17 18 19 19 20 20 19
17 17 17 17 18 21 19 19 20 21 20 20 19 20 23 22 20 18 18 17 17 17 18 17 16 15 15 15 15 15 16 16 15 15 15 16 17 17 18 19 19 20 19 20
17 18 17 18 18 19 19 20 20 21 21 20 20 21 21 21 21 21 20 18 18 17 17 16 16 16 16 16 15 16 16 16 16 16 16 17 17 17 18 19 19 19 19 20
19 19 19 18 17 19 20 20 21 22 21 21 20 21 22 21 21 21 20 19 20 19 18 17 16 16 16 15 16 17 16 17 17 17 17 18 17 17 17 18 19 19 19 19
22 21 19 18 18 20 21 21 23 23 21 22 22 21 22 22 22 22 21 20 20 19 18 17 17 17 17 17 17 17 17 17 17 17 17 18 18 18 18 18 19 19 19 19
23 23 21 21 19 20 21 21 22 23 24 23 21 22 23 25 23 23 23 21 20 19 19 18 17 18 18 18 17 17 17 18 18 18 19 19 19 18 19 19 19 19 20 20
23 23 22 22 21 21 23 24 25 24 25 25 22 23 25 25 24 24 24 24 23 22 21 19 18 18 18 18 18 18 18 19 19 19 19 18 19 19 19 19 20 20 21 20
24 24 24 23 22 22 23 24 26 24 24 24 24 24 24 25 26 25 25 25 24 22 22 21 20 20 20 19 19 20 20 20 20 20 20 19 19 19 19 19 20 21 20 20
25 24 24 24 23 23 25 24 24 24 25 26 26 25 24 25 25 25 25 25 25 23 22 22 22 22 21 21 20 21 20 20 20 20 20 19 20 19 19 19 20 20 20 19
25 25 25 25 23 24 24 25 24 25 25 25 25 26 25 26 26 26 26 25 25 25 24 23 23 23 23 23 22 21 21 20 20 21 20 20 20 20 19 19 20 20 20 20
25 24 25 24 23 25 25 26 26 26 27 27 27 27 27 26 26 25 25 26 25 25 24 24 24 24 23 23 22 22 21 21 21 22 21 21 21 20 20 20 20 20 20 20
24 25 25 25 25 25 26 26 25 25 28 28 27 27 27 27 27 25 26 26 25 25 24 24 24 23 23 22 22 22 22 22 22 22 21 21 21 22 21 21 21 20 20 19
24 24 25 26 27 26 27 27 26 27 28 29 28 27 27 27 27 26 26 26 26 25 25 25 25 24 24 23 23 23 22 22 22 22 22 21 21 21 21 21 21 21 20 20
23 24 24 26 26 26 26 27 27 28 28 27 27 27 27 27 27 27 26 27 27 26 26 25 25 25 24 23 23 23 23 23 23 22 21 21 21 21 21 21 21 22 21 21
24 24 24 25 26 26 26 27 27 26 27 27 26 26 26 27 27 27 27 27 27 27 26 25 25 25 24 23 23 24 24 24 23 23 22 22 21 22 22 22 22 22 21 21
24 24 25 26 26 25 25 26 26 25 26 26 27 26 27 28 28 27 27 27 27 27 26 25 25 24 24 23 24 24 25 25 25 24 23 23 23 22 23 23 23 22 23 22
24 25 25 26 26 26 25 25 25 25 25 25 25 26 27 27 27 27 26 26 25 25 25 25 25 25 25 25 25 25 25 26 26 25 24 24 23 23 23 23 23 23 22 21
24 24 25 26 26 26 25 25 25 26 26 26 27 27 26 26 25 26 25 24 24 25 25 25 25 25 25 24 24 25 25 25 25 25 25 24 23 23 23 22 22 22 22 21
Wind_Direction
246 248 248 245 245 245 243 243 247 250 255 261 264 266 267 274 278 278 280 283 282 284 285 286 289 293 296 297 298 299 300 302 303 305 307 306 307 307 307 306 300 300 300 299
250 252 252 245 242 241 238 240 245 247 250 257 265 268 268 268 275 278 278 280 283 282 283 288 291 294 295 296 295 297 299 299 302 303 304 305 307 309 308 306 301 301 300 298
254 252 249 245 245 244 237 238 241 246 249 257 265 267 269 268 271 277 280 276 279 283 285 289 292 292 294 294 293 295 299 299 300 301 302 304 305 306 308 305 301 299 298 297
250 248 247 243 241 243 239 238 243 247 249 253 260 269 270 274 274 276 282 281 285 284 284 286 289 292 294 293 293 293 297 296 298 300 301 301 302 304 305 306 305 303 301 301
247 247 245 243 241 242 243 241 245 247 251 253 250 259 262 274 277 281 279 281 285 285 284 285 287 290 291 292 293 293 296 297 297 300 301 302 304 306 308 309 309 307 306 304
248 245 247 242 240 240 239 243 247 248 250 253 254 256 260 268 274 278 281 284 286 285 283 284 288 290 288 291 293 293 294 295 297 300 302 302 303 305 308 308 308 308 306 304
248 245 247 242 241 240 234 238 245 249 250 254 255 256 255 262 270 278 279 282 282 282 280 284 289 290 290 291 294 298 299 299 297 298 300 301 302 305 308 307 306 307 306 305
245 245 242 242 242 238 236 235 239 245 249 254 253 253 257 263 272 278 280 283 286 286 284 284 288 290 290 291 294 298 300 299 297 298 299 300 302 304 306 307 306 306 306 304
247 249 245 244 245 236 235 237 242 244 245 249 254 262 261 263 267 273 279 282 282 284 285 286 286 286 289 292 295 299 299 300 299 298 301 302 305 307 307 307 307 306 304 302
252 251 247 245 248 241 238 238 240 240 245 247 251 256 263 262 267 273 277 276 277 279 282 285 284 286 287 289 292 295 298 300 301 299 301 305 310 308 309 310 308 308 305 302
249 249 248 245 241 240 241 241 238 240 247 250 253 255 256 260 260 263 271 274 276 278 284 286 285 283 286 288 291 295 299 300 301 301 304 306 307 308 309 311 311 310 308 305
240 244 243 241 237 235 237 240 242 245 247 249 253 261 262 264 263 263 266 272 275 278 281 284 282 283 284 285 289 292 294 299 301 301 302 304 305 306 310 311 312 311 311 309
239 241 242 240 240 239 239 239 242 246 249 252 253 255 262 266 262 263 266 269 273 277 278 278 279 282 284 285 288 289 292 295 299 300 301 302 303 304 307 310 313 313 313 312
243 243 241 240 240 242 239 239 241 247 251 256 256 259 262 263 261 263 265 269 273 274 273 273 277 280 281 283 285 288 292 294 297 299 300 300 301 303 304 306 310 313 315 317
247 247 245 243 242 240 242 241 240 245 250 254 258 260 260 262 262 261 263 268 272 270 270 273 277 279 279 280 284 288 290 292 294 297 299 299 299 299 302 304 308 311 315 317
248 249 248 248 246 241 246 246 245 249 252 252 254 257 261 262 263 265 264 267 270 269 268 273 276 277 281 282 283 286 288 291 294 297 296 295 296 298 301 304 306 309 312 315
249 250 248 246 243 244 243 244 245 247 252 255 258 261 260 264 266 264 265 266 267 268 270 272 273 275 278 282 283 284 285 288 291 295 295 293 293 294 298 302 305 307 310 312
247 248 250 250 246 247 248 248 247 247 249 252 256 261 263 263 265 265 266 265 266 266 269 271 272 273 274 278 280 281 283 286 289 293 293 292 289 291 294 299 302 303 306 310
249 249 252 252 251 252 253 252 249 251 254 255 256 257 261 263 267 266 265 266 264 266 269 270 271 271 272 275 278 280 281 284 287 290 290 290 291 292 294 297 299 300 302 306
251 250 251 251 253 254 252 251 252 253 255 256 258 259 261 261 263 264 264 265 265 267 269 269 270 271 272 275 277 278 279 281 284 287 289 291 291 291 294 296 295 297 300 302
252 252 251 250 251 251 254 254 255 253 255 257 257 259 261 262 261 262 263 265 267 267 268 269 269 269 271 272 274 276 277 278 281 284 286 288 290 291 291 293 293 298 301 302
249 249 248 248 247 247 252 255 255 256 257 257 257 259 260 262 262 264 264 264 266 268 268 268 268 269 268 270 271 273 275 277 279 282 284 285 286 287 289 290 292 296 298 300
244 245 244 247 248 249 252 255 258 259 259 259 259 257 258 260 262 265 264 263 264 266 267 267 267 268 268 269 271 273 273 275 279 281 282 283 284 286 287 289 291 293 294 296
244 245 247 247 248 249 251 252 255 258 259 259 260 259 260 262 262 264 265 263 263 263 264 264 264 265 266 270 273 275 274 275 277 279 280 281 282 283 285 287 289 291 294 295
248 248 250 249 247 249 252 254 255 255 256 258 258 259 259 260 261 262 261 263 263 263 264 265 265 266 268 271 273 276 277 278 279 279 279 280 281 282 284 286 287 289 291 294
246 248 251 250 249 249 255 256 256 257 257 258 258 260 260 260 259 260 263 264 264 262 263 264 264 266 268 270 273 276 279 280 281 281 280 280 281 283 285 286 287 287 287 289
Height
5835 5838 5839 5842 5845 5848 5850 5852 5855 5858 5859 5858 5858 5857 5858 5856 5856 5855 5854 5853 5852 5851 5851 5851 5851 5850 5849 5848 5847 5846 5845 5844 5842 5841 5839 5838 5837 5835 5833 5832 5830 5829 5827 5826
5832 5834 5837 5839 5841 5843 5846 5849 5852 5855 5855 5855 5854 5854 5854 5852 5853 5851 5850 5850 5849 5848 5848 5847 5847 5847 5846 5845 5844 5843 5842 5841 5839 5838 5836 5835 5834 5832 5830 5828 5827 5825 5823 5822
5829 5832 5833 5834 5837 5839 5842 5845 5848 5850 5851 5851 5851 5850 5849 5848 5849 5848 5847 5846 5846 5846 5845 5844 5843 5843 5842 5841 5840 5839 5839 5837 5836 5834 5833 5832 5830 5829 5827 5825 5824 5822 5820 5818
5826 5828 5829 5831 5833 5836 5838 5841 5843 5845 5845 5846 5848 5846 5846 5845 5845 5844 5843 5842 5843 5842 5842 5841 5840 5839 5837 5836 5836 5836 5835 5833 5832 5831 5829 5828 5827 5826 5824 5822 5820 5819 5817 5815
5822 5824 5825 5827 5830 5832 5834 5837 5838 5839 5840 5840 5842 5842 5843 5842 5841 5841 5840 5839 5839 5839 5837 5837 5837 5836 5834 5833 5832 5832 5831 5829 5828 5827 5826 5825 5824 5823 5821 5819 5818 5816 5814 5812
5819 5820 5821 5823 5825 5827 5829 5832 5833 5834 5835 5836 5838 5838 5838 5839 5838 5838 5836 5836 5836 5835 5834 5833 5833 5832 5832 5831 5830 5829 5828 5826 5825 5824 5823 5822 5821 5819 5817 5815 5814 5812 5810 5808
5814 5816 5818 5819 5821 5823 5825 5828 5829 5830 5831 5832 5834 5833 5833 5834 5834 5834 5834 5833 5832 5832 5831 5831 5830 5829 5829 5828 5827 5826 5825 5824 5823 5822 5820 5819 5817 5815 5814 5812 5810 5808 5806 5804
5811 5813 5814 5815 5817 5819 5820 5823 5825 5827 5828 5829 5829 5828 5829 5830 5830 5831 5830 5829 5829 5829 5828 5828 5827 5826 5825 5825 5824 5823 5822 5821 5820 5818 5817 5816 5814 5812 5810 5808 5806 5804 5802 5800
5807 5809 5810 5811 5812 5815 5816 5817 5820 5822 5823 5824 5825 5825 5824 5825 5826 5827 5827 5827 5826 5825 5825 5824 5823 5822 5822 5822 5821 5820 5819 5817 5816 5815 5814 5812 5810 5808 5806 5804 5802 5799 5797 5795
5803 5805 5806 5808 5809 5809 5811 5813 5816 5817 5818 5819 5822 5822 5820 5820 5821 5823 5823 5822 5822 5821 5821 5820 5819 5819 5819 5818 5818 5817 5815 5814 5813 5812 5810 5809 5806 5804 5802 5800 5797 5795 5792 5790
5799 5801 5803 5803 5804 5806 5808 5810 5811 5812 5814 5815 5816 5819 5816 5816 5817 5818 5819 5818 5818 5818 5817 5816 5816 5815 5815 5815 5814 5813 5812 5811 5809 5808 5806 5805 5803 5800 5798 5796 5793 5790 5788 5785
5794 5795 5797 5799 5801 5803 5805 5806 5807 5808 5809 5810 5811 5814 5810 5811 5812 5813 5814 5813 5813 5814 5813 5813 5813 5812 5812 5811 5811 5810 5809 5807 5806 5804 5803 5801 5798 5796 5794 5792 5789 5786 5784 5781
5790 5791 5793 5795 5798 5799 5799 5801 5803 5803 5804 5805 5806 5808 5806 5806 5807 5808 5809 5810 5809 5809 5809 5809 5809 5808 5808 5808 5807 5806 5805 5803 5802 5800 5798 5796 5794 5792 5790 5788 5785 5783 5780 5777
5785 5786 5789 5791 5793 5794 5794 5796 5797 5798 5799 5800 5802 5802 5801 5801 5801 5803 5804 5805 5805 5805 5805 5805 5804 5804 5804 5804 5803 5802 5801 5799 5798 5796 5794 5792 5790 5789 5787 5784 5782 5779 5777 5774
5779 5781 5782 5785 5787 5788 5789 5791 5792 5793 5795 5796 5796 5796 5796 5797 5797 5797 5799 5799 5800 5800 5800 5800 5799 5800 5800 5799 5799 5798 5796 5795 5793 5791 5790 5788 5786 5785 5783 5780 5778 5776 5773 5770
5774 5776 5777 5779 5781 5782 5784 5785 5786 5788 5789 5790 5790 5790 5790 5791 5791 5791 5793 5794 5794 5794 5794 5795 5795 5795 5795 5795 5794 5793 5792 5790 5789 5787 5785 5784 5782 5781 5778 5776 5774 5772 5769 5766
5767 5770 5772 5773 5775 5775 5777 5779 5781 5782 5783 5784 5784 5786 5784 5785 5786 5787 5787 5788 5788 5789 5789 5790 5790 5790 5790 5790 5789 5788 5787 5786 5784 5782 5781 5779 5778 5776 5774 5772 5770 5768 5766 5763
5762 5763 5765 5766 5768 5769 5774 5774 5774 5775 5776 5777 5778 5778 5778 5779 5780 5781 5781 5781 5781 5783 5784 5784 5784 5784 5784 5784 5783 5783 5781 5780 5779 5778 5776 5774 5773 5772 5770 5768 5766 5764 5761 5758
5755 5757 5759 5760 5761 5763 5766 5767 5769 5770 5770 5770 5771 5772 5772 5773 5773 5773 5774 5774 5775 5776 5777 5778 5778 5778 5778 5778 5777 5777 5776 5775 5774 5773 5771 5769 5768 5766 5765 5763 5761 5759 5757 5754
5748 5750 5753 5754 5755 5756 5759 5760 5761 5764 5763 5764 5764 5765 5766 5766 5767 5768 5768 5768 5768 5770 5770 5771 5772 5771 5771 5771 5771 5771 5770 5769 5768 5767 5765 5764 5763 5761 5759 5758 5756 5754 5752 5749
5742 5743 5745 5747 5748 5749 5751 5753 5755 5757 5756 5757 5758 5758 5759 5759 5760 5761 5761 5761 5762 5763 5764 5764 5765 5765 5765 5765 5765 5764 5764 5763 5762 5761 5760 5759 5757 5756 5754 5753 5751 5749 5747 5745
5735 5737 5738 5739 5740 5743 5744 5746 5747 5748 5748 5748 5750 5751 5752 5752 5753 5754 5754 5755 5756 5756 5757 5757 5758 5758 5758 5758 5758 5758 5757 5757 5756 5755 5754 5753 5751 5750 5749 5747 5746 5744 5742 5740
5728 5730 5731 5733 5735 5735 5736 5738 5739 5740 5741 5742 5743 5744 5745 5745 5746 5747 5747 5748 5749 5749 5750 5750 5751 5751 5751 5751 5751 5751 5751 5750 5750 5749 5748 5747 5745 5744 5743 5742 5740 5739 5737 5735
5721 5723 5724 5725 5726 5728 5729 5730 5732 5734 5735 5736 5736 5736 5738 5738 5739 5739 5740 5740 5741 5742 5743 5743 5743 5744 5744 5744 5744 5744 5744 5744 5743 5742 5741 5740 5739 5738 5737 5736 5734 5733 5731 5729
5715 5716 5717 5719 5720 5722 5723 5724 5726 5727 5728 5729 5729 5730 5730 5731 5731 5732 5733 5733 5734 5735 5735 5736 5736 5736 5737 5737 5736 5736 5736 5736 5735 5734 5734 5733 5732 5731 5730 5729 5728 5726 5725 5723
5708 5709 5711 5711 5713 5715 5716 5717 5719 5720 5721 5722 5722 5723 5723 5723 5724 5724 5725 5726 5726 5727 5728 5728 5729 5729 5729 5730 5730 5729 5729 5728 5728 5727 5727 5726 5725 5724 5723 5723 5722 5720 5719 5717